Regional Weather Roundup
Issued by NWS

Home | Current Version | Previous Version | Text Only | Print | Product List | Glossary Off
Versions: 1 2 3 4 5 6 7 8 9 10 11 12 13 14 15 16 17 18 19 20 21 22 23 24 25 26 27 28 29 30 31 32 33 34 35 36 37 38 39 40 41 42 43 44 45 46 47 48 49 50

000
ASUS43 KLSX 291307
RWRMO

WEATHER SUMMARY FOR MISSOURI
NATIONAL WEATHER SERVICE SPRINGFIELD MO
700 AM CST THU JAN 29 2015

NOTE: "FAIR" INDICATES FEW OR NO CLOUDS BELOW 12,000 FEET WITH NO
       SIGNIFICANT WEATHER AND/OR OBSTRUCTIONS TO VISIBILITY.
       CURRENT SKY AND/OR WEATHER CONDITIONS ARE NOT AVAILABLE FOR
       CHILLICOTHE AND FARMINGTON.

MOZ001>031-035>038-043-044-053-054-291400-
...NORTHERN AND WESTERN MISSOURI...

CITY           SKY/WX    TMP DP  RH WIND       PRES   REMARKS
KANSAS CTY INT CLOUDY    37  30  75 NW15      30.19R WCI  28
KANSAS C DTWN  CLOUDY    40  30  67 N14G21    30.19R
LEE`S SUMMIT   CLOUDY    39  29  67 NW22G30   30.18R WCI  29
ST JOSEPH      CLOUDY    37  29  72 N24G35    30.21R WCI  26
CHILLICOTHE      N/A     40  29  64 NW15G24   30.13R
KIRKSVILLE     CLOUDY    37  31  78 NW13G23   30.06R WCI  29

$$
MOZ066>068-077>081-088>096-101>105-291400-
...SOUTHWEST MISSOURI...

CITY           SKY/WX    TMP DP  RH WIND       PRES   REMARKS
SPRINGFIELD    CLOUDY    46  37  71 N16G24    30.08R
JOPLIN         MOCLDY    46  36  68 N16G29    30.15R

$$
MOZ032>034-039>042-045>050-055>058-069>072-291400-
...CENTRAL MISSOURI...

CITY           SKY/WX    TMP DP  RH WIND       PRES   REMARKS
COLUMBIA       CLOUDY    40  32  73 NW31G38   30.07R WCI  28
JEFFERSON CITY CLOUDY    42  33  70 NW18G28   30.08R
ROLLA          CLOUDY    41  33  73 NW25G38   30.02R
SEDALIA        CLOUDY    40  33  76 NW28G37   30.13R WCI  29
WHITEMAN AFB   CLOUDY    40  32  74 NW21G29   30.14R WCI  30
WARRENSBURG    CLOUDY    37  32  81 NW23      30.17R WCI  26
OSAGE BEACH    CLOUDY    45  32  61 NW9G24    30.09R

$$
MOZ051-052-059>065-291400-
...EAST CENTRAL MISSOURI...

CITY           SKY/WX    TMP DP  RH WIND       PRES   REMARKS
ST LOUIS INTL  CLOUDY    43  34  70 NW22G39   29.96R
SPIRIT OF STL  CLOUDY    42  32  67 W25G36    30.00R
ST CHARLES     CLOUDY    41  34  76 NW24G33   29.97R

$$
MOZ072>076-082>087-097>100-106>115-291400-
...SOUTH CENTRAL AND SOUTHEAST MISSOURI...

CITY           SKY/WX    TMP DP  RH WIND       PRES   REMARKS
CAPE GIRARDEAU NOT AVBL
FARMINGTON     CLEAR     48  36  61 NW20G30   29.97R
POPLAR BLUFF   CLEAR     48  40  73 SW10      29.94R
WEST PLAINS    CLEAR     47  36  65 NW12      30.01R

$$


USA.gov is the U.S. government's official web portal to all federal, state and local government web resources and services.